Regional Weather Roundup
Issued by NWS Albany, NY

Home | Current Version | Previous Version | Graphics & Text | Print | Product List | Glossary Off
Versions: 1 2 3 4 5 6 7 8 9 10 11 12 13 14 15 16 17 18 19 20 21 22 23 24 25 26 27 28 29

000
ASUS41 KALY 251008
RWRALY
NEW YORK STATE HOURLY WEATHER ROUNDUP
NATIONAL WEATHER SERVICE ALBANY NY
600 AM EDT THU AUG 25 2016

NOTE: "FAIR" INDICATES FEW OR NO CLOUDS BELOW 12,000 FEET WITH NO
SIGNIFICANT WEATHER AND/OR NO OBSTRUCTIONS TO VISIBILITY.

NYZ032-033-038>043-046>054-057>081-251100-
EAST


CITY           SKY/WX    TMP DP  RH WIND       PRES   REMARKS
ALBANY         PTCLDY    68  62  81 S10       30.06S
GLENS FALLS    PTCLDY    65  61  87 S7        30.04F
POUGHKEEPSIE   CLEAR     64  60  87 CALM      30.10F
NEWBURGH       CLEAR     64  63  94 CALM      30.13S
MONTGOMERY     CLEAR     61  60  97 CALM      30.11S FOG
WHITE PLAINS   CLEAR     67  62  84 CALM      30.13S
ISLIP          PTCLDY    67  63  87 SW5       30.14R
NEW YORK CITY  PTCLDY    73  63  70 SW9       30.12S
CENTRAL PARK     N/A     70  63  78 MISG        N/A
$$

NYZ005>009-017-018-044>046-055-056-251100-
CENTRAL


CITY           SKY/WX    TMP DP  RH WIND       PRES   REMARKS
FULTON         LGT RAIN  74  65  73 S8        29.96S
SYRACUSE       CLOUDY    74  64  71 S9        29.97S
ROME           CLOUDY    69  64  84 E6        30.02S
ELMIRA         CLOUDY    68  63  84 CALM      30.03R
BINGHAMTON     PTCLDY    66  62  87 SW9G17    30.08S
MONTICELLO     CLEAR     57  57 100 CALM      30.15R
$$

NYZ026>034-041>043-251100-
NORTH


CITY           SKY/WX    TMP DP  RH WIND       PRES   REMARKS
WATERTOWN      LGT RAIN  74  63  68 S10G17    29.93S
FORT DRUM      CLOUDY    74  63  69 S9        29.94F
OGDENSBURG     PTCLDY    72  64  78 SW8       29.92R
POTSDAM        NOT AVBL
MASSENA        CLOUDY    74  62  66 S9        29.91F
SARANAC LAKE   CLOUDY    67  59  75 SW9       30.02S
PLATTSBURGH    CLOUDY    64  62  93 CALM      29.96S
$$

NYZ001>004-010>016-019>021-251100-
WEST


CITY           SKY/WX    TMP DP  RH WIND       PRES   REMARKS
NIAGARA FALLS  CLOUDY    75  70  84 SW12      29.93S
BUFFALO        LGT RAIN  71  70  96 S9        29.95F FOG
JAMESTOWN      CLOUDY    68  64  88 S9        30.01S
WELLSVILLE     CLOUDY    70  64  81 VRB6      30.07S
DANSVILLE      CLOUDY    73  64  73 SE7       29.99S
ROCHESTER      HVY RAIN  70  67  90 SW10      29.98R FOG
PENN YAN       PTCLDY    73  63  70 S8        30.01R


             KEY
       WCI = WIND CHILL INDEX
       VSB = VISIBILITY
       HX  = HEAT INDEX




USA.gov is the U.S. government's official web portal to all federal, state and local government web resources and services.